sat.trackr.live / text

‹ back to catalog

STARLINK-35756

NORAD 67175 · 2025-303N

PAYLOAD ACTIVE UNKNOWN

§ Identity

Operator
Country
US
Launch date
2025-12-17
Launch site
AFETR
Launch vehicle
Mass (kg)
RCS (m²)

Purposes: comms

External: N2YO · Heavens-Above · Gunter

§ Orbital elements

Epoch: 2026-09-20T03:29:34.593792Z

Period
94.27 min
Inclination
42.9993°
Eccentricity
0.0001018
Mean motion
15.27587872 rev/d
Perigee alt
482.3 km
Apogee alt
483.7 km
Semi-major
6,861.2 km
B*
5.5087e-4
RAAN
292.6175°
Arg perigee
230.5987°
Mean anomaly
129.4775°
Rev number
4,247

§ Raw data

STARLINK-357561 67175U 25303N   26263.14553928  .00014931  00000+0  55087-3 0  99902 67175  42.9993 292.6175 0001018 230.5987 129.4775 15.27587872 42474

JSON: /api/v1/satellites/67175 · /tle

For live sub-satellite position, see the globe view (requires WebGL).

§ Visibility from observer

Set your observer location to see the next 7 days of passes ≥ 10°. The values pass through the URL so the page stays shareable.

No JS? Fill the form by hand. The geolocation button needs JavaScript.